Volver al catálogo

ONEWEB-0039

ActivoComunicacionesPO
NORAD 45146·PAYLOAD·🇬🇧 United Kingdom

Lanzado Feb 6, 2020 desde Baikonur Cosmodrome

Loading…

Próximos Pases (próximas 24 horas)

TLE

ActualizadoSource: CelesTrak SupGP

Época: Sep 14, 2026, 15:30 UTC

1 45146C 20008R   26257.64633519  .00001734  00000+0  49728-2 0  2572
2 45146  87.8920  18.4560 0002231 104.4205   5.2214 13.10376041    15

Sigue ONEWEB-0039 en tiempo real con AllMySat

Download on the App Store